Location: Tore
(57.5333°N, 4.3167°W)
Time: 14:45:56
(UTC+00:00)

Daily predictions for brighter satellites

Satellite Brightness Start Highest point End
(mag) Time Altitude Azimuth Time Altitude Azimuth Time Altitude Azimuth
Cosmos 1709 Rocket 4.4 22:13:52 10° SSW 22:20:12 72° WNW 22:26:36 10° N
Cosmos 2237 Rocket 3.3 22:16:09 10° SSE 22:20:46 26° ESE 22:25:25 10° NE
Cosmos 2333 4.2 22:17:02 10° SSW 22:22:40 73° ESE 22:28:24 10° NE
Cosmos 2219 Rocket 2.3 22:17:22 10° SSW 22:22:49 57° ESE 22:28:20 10° NE
Cosmos 1538 Rocket 4.2 22:18:56 10° SSW 22:24:12 61° ESE 22:29:28 10° NE
Cosmos 1315 Rocket 3.7 22:20:48 10° NNW 22:24:44 46° W 22:28:40 10° S
Cosmos 2360 Rocket 2.6 22:19:12 10° SW 22:24:52 73° NW 22:30:35 10° NE
NOSS 3-3 (A) 4.3 22:19:26 10° SSW 22:25:07 45° SE 22:31:32 10° ENE
NOSS 3-3 (C) 4.4 22:19:33 10° SSW 22:25:14 45° SE 22:31:39 10° ENE
Meteor 2-2 Rocket 4.4 22:23:35 10° NNW 22:29:28 79° WSW 22:35:13 10° S
Resurs 01 Rocket 4.5 22:31:17 10° W 22:32:25 11° W 22:33:33 10° WNW
Cosmos 2333 Rocket 2.3 22:27:15 10° SSW 22:32:54 68° ESE 22:38:38 10° NE
Cosmos 2221 2.9 22:29:58 10° NNW 22:34:21 66° W 22:38:40 10° S
Cosmos 2184 Rocket 4.1 22:28:38 10° S 22:34:50 70° E 22:41:08 10° NNE
Iridium 2 4.1 22:34:48 10° N 22:38:34 52° ENE 22:42:18 10° SSE
Cosmos 1371 Rocket 4.1 22:33:23 10° NNW 22:38:40 84° ENE 22:43:58 10° SSE
ATLAS 2AS CENTAUR R/B 3.0 22:31:04 10° NW 22:38:46 70° SW 22:45:50 10° SE
BREEZE-M DEB (TANK) 3.3 22:34:34 10° WSW 22:38:49 25° SSW 22:41:11 10° SE
Cosmos 1818 3.7 22:33:34 10° SW 22:39:02 86° NW 22:44:33 10° NE
Cosmos 773 Rocket 4.2 22:35:41 10° SSW 22:41:00 80° WNW 22:46:20 10° NNE
GEOS 3 Rocket 3.7 22:35:44 10° NE 22:41:10 79° SE 22:46:35 10° SW
EO 1 Del DPAF 4.4 22:38:19 10° NE 22:41:37 28° E 22:44:53 10° SSE
ERS-1 Rocket 4.5 22:39:12 10° SSW 22:43:38 30° W 22:48:06 10° NNW
SL-16 R/B 3.9 22:39:01 10° WSW 22:44:19 39° NW 22:49:40 10° NNE
Aureole 2 Rocket 2.5 22:43:16 10° NNW 22:45:59 49° ENE 22:48:48 10° SE
Cosmos 1892 2.9 22:42:22 10° S 22:46:04 55° E 22:49:50 10° NNE
Cosmos 1606 3.8 22:44:46 10° N 22:48:24 37° ENE 22:52:02 10° SE
Cosmos 2278 Rocket 2.8 22:43:51 10° NW 22:49:18 48° WSW 22:54:43 10° S
USA 215 3.5 22:44:05 10° ENE 22:50:26 49° SSE 22:56:45 10° SW
Cosmos 2297 3.9 22:45:04 10° NW 22:50:52 76° NE 22:56:36 10° SE
Cosmos 1420 Rocket 4.4 22:49:33 10° NNW 22:54:49 63° NE 23:00:04 10° SE
ATLAS 5 CENTAUR R/B 1.8 22:52:04 10° WSW 22:56:28 84° NNW 23:01:35 10° NE
Cosmos 1943 Rocket 2.9 22:51:50 10° NNW 22:57:26 53° NE 23:02:59 10° ESE
Cosmos 158 Rocket 4.4 22:53:18 10° S 22:57:50 40° ESE 23:02:26 10° NE
Lacrosse 5 rocket 1.2 22:53:46 10° W 22:57:56 81° S 23:01:52 10° ESE
Cosmos 2056 Rocket 3.7 22:57:10 10° NNW 23:02:36 78° WSW 23:07:58 10° SSE
Spot 4 3.9 22:59:08 10° SSE 23:03:56 81° WSW 23:08:45 10° NNW
SL-16 R/B 3.6 23:00:53 10° SSE 23:05:12 23° ESE 23:09:32 10° NE
Cosmos 2058 2.9 23:01:40 10° S 23:05:49 84° ESE 23:09:59 10° NNE
Cosmos 1408 2.7 23:03:24 10° S 23:06:53 58° E 23:10:24 10° NNE
Nadezhda 3 Rocket 4.3 23:01:00 10° NNW 23:07:23 72° W 23:13:41 10° S
Cosmos 2154 Rocket 4.0 23:08:29 10° S 23:14:41 84° E 23:20:58 10° NNE
Cosmos 332 Rocket 4.2 23:11:29 10° NNW 23:16:16 61° NE 23:21:01 10° SE
Cosmos 1076 Rocket 3.5 23:13:20 10° SSW 23:17:39 85° WNW 23:21:57 10° NNE
Cosmos 2341 Rocket 4.3 23:11:47 10° S 23:17:50 58° E 23:23:54 10° NNE
In-Cosmos 22 Rocket 4.2 23:12:41 10° SSW 23:18:00 82° WNW 23:23:23 10° NNE
Cosmos 1680 Rocket 3.6 23:16:42 10° SSW 23:21:57 64° ESE 23:27:15 10° NNE
Cosmos 2074 Rocket 4.4 23:15:53 10° SSW 23:22:03 64° WNW 23:28:15 10° N
Cosmos 405 4.5 23:22:19 10° N 23:25:31 30° ENE 23:28:41 10° SE
USA 267 4.2 23:21:24 11° SSE 23:26:56 31° SW 23:32:39 10° WNW
Cosmos 2151 3.2 23:23:52 11° S 23:27:51 61° E 23:32:05 10° NNE
Helios 1A 3.5 23:24:57 10° SE 23:29:00 53° ENE 23:33:05 10° N
Cosmos 1452 Rocket 3.7 23:24:22 10° NNW 23:29:40 77° ENE 23:34:56 10° SE
CZ-4C R/B 3.0 23:23:42 10° WNW 23:30:17 77° NNE 23:38:09 10° ESE
COSMOS 2455 2.9 23:25:20 10° NW 23:31:26 90° SW 23:37:29 10° SE
Cosmos 2322 Rocket 4.4 23:27:03 10° W 23:31:57 29° NNW 23:36:52 10° NNE
Cosmos 1933 3.4 23:30:33 10° N 23:34:36 76° ENE 23:38:13 13° SSE
Cosmos 1151 Rocket 3.0 23:31:45 10° NNW 23:36:08 84° ENE 23:40:03 13° SSE
Cosmos 1825 2.1 23:32:56 11° S 23:36:30 81° E 23:40:19 10° NNE
SL-8 Rocket 4.2 23:30:59 11° S 23:36:45 59° E 23:42:49 10° NNE
EO 1 Delta rocket 4.2 23:32:18 10° N 23:37:10 87° WNW 23:42:59 10° SSW
Cosmos 1340 3.8 23:34:23 12° SSE 23:37:22 30° E 23:40:43 10° NNE
ALOS 2 2.7 23:35:27 12° S 23:39:27 72° WSW 23:43:53 10° NNW
Cosmos 923 Rocket 4.1 23:34:16 10° SSW 23:39:32 83° WNW 23:44:54 10° NNE
Cosmos 1408 Rocket 4.5 23:35:56 12° SSE 23:39:39 37° E 23:43:44 10° NNE
SL-16 R/B 4.4 23:36:53 10° E 23:41:52 26° NE 23:46:54 10° N
Cosmos 1727 Rocket 4.3 23:35:43 10° N 23:41:56 66° ENE 23:48:04 10° SSE
Cosmos 2369 Rocket 2.5 23:36:28 10° NW 23:42:05 69° NE 23:47:40 10° SE
APEX 2.3 23:39:19 10° NW 23:42:06 71° SW 23:44:22 14° SSE
GP-B 3.1 23:40:21 10° N 23:44:50 80° E 23:48:50 13° S
Cosmos 371 Rocket 3.4 23:41:08 10° NNW 23:45:59 70° WSW 23:50:25 12° SSE
Cosmos 1980 3.7 23:40:20 10° SSW 23:45:59 83° SE 23:51:41 10° NE
Cosmos 44 4.1 23:43:37 13° S 23:46:49 28° ESE 23:50:38 10° ENE
SL-4 R/B 0.2 23:48:59 19° SSE 23:50:19 84° WSW 23:52:25 10° NNW
COSMOS 2428 3.4 23:45:44 10° WSW 23:51:19 56° NW 23:56:57 10° NE
Helios 1B rocket 4.4 23:49:07 10° NE 23:51:58 18° E 23:54:49 10° SE
Terra 4.2 23:53:13 10° WSW 23:55:18 13° W 23:57:23 10° NW
Cosmos 1782 3.2 23:51:36 10° N 23:55:32 59° ENE 23:59:10 12° SSE
